Regional Weather Roundup
Issued by NWS

Home | Current Version | Previous Version | Graphics & Text | Print | Product List | Glossary On
Versions: 1 2 3 4 5 6 7 8 9 10 11 12 13 14 15 16 17 18 19 20 21 22 23 24 25 26 27 28 29 30 31 32 33 34 35 36 37 38 39 40 41 42 43 44 45 46 47 48 49 50
000
ASUS43 KLOT 251708
RWRIL

ILLINOIS REGIONAL WEATHER ROUNDUP
NATIONAL WEATHER SERVICE CHICAGO/ROMEOVILLE IL
1200 PM CDT MON MAY 25 2015

NOTE: "FAIR" INDICATES FEW OR NO CLOUDS BELOW 12,000 FEET WITH NO
SIGNIFICANT WEATHER AND/OR OBSTRUCTIONS TO VISIBILITY.

* THESE STATIONS ARE NOT UNDER NWS QUALITY CONTROL. THEY ALSO MAY NOT
  REPORT WEATHER SUCH AS PRECIPITATION OR FOG.

ILZ001-002-007-009-015-016-024-251800-
NORTHWEST ILLINOIS

CITY           SKY/WX    TMP DP  RH WIND       PRES   REMARKS
MOLINE         MOSUNNY   74  62  66 SW16G24   29.88S
STERLING*      CLOUDY    73  64  73 W16G23    29.90R
SAVANNA*       CLOUDY    72  63  72 SW12G20   29.87S
$$

ILZ003-004-008-010-011-017-018-251800-
NORTH CENTRAL ILLINOIS

CITY           SKY/WX    TMP DP  RH WIND       PRES   REMARKS
ROCKFORD       CLOUDY    71  63  75 SW17G24   29.88R
FREEPORT*      CLOUDY    69  63  81 SW16G23   29.89R
ROCHELLE*      CLOUDY    69  64  82 W21G26    29.90R
DE KALB*       PTSUNNY   70  62  75 SW15G26   29.89R
PERU*          CLOUDY    73  64  74 W15G23    29.92R
$$

ILZ005-006-012>014-019>023-251800-
NORTHEAST ILLINOIS

CITY           SKY/WX    TMP DP  RH WIND       PRES   REMARKS
CHICAGO-OHARE  LGT RAIN  69  66  90 SW12      29.87S
CHICAGO-MIDWAY LGT RAIN  72  65  78 SW21G30   29.89S
AURORA         CLOUDY    72  63  73 SW14G24   29.89R
LANSING*       PTSUNNY   74  63  67 SW23G33   29.91S
JOLIET*        CLOUDY    71  68  88 SW15      29.91R
WAUKEGAN       PTSUNNY   73  63  70 SW20G30   29.85R
DUPAGE AIRPORT CLOUDY    70  65  84 SW15      29.88R
KANKAKEE*      CLOUDY    75  63  65 SW24G32   29.94R
WHEELING       CLOUDY    70  64  81 SW15      29.89R
MORRIS*        CLOUDY    72  66  81 W24       29.91R
ROMEOVILLE*    CLOUDY    69  66  89 SW15      29.90R
NORTHERLY ISL    N/A     71  62  73 SW12        N/A
$$

LMZ740>746-251800-
SOUTHERN LAKE MICHIGAN

STATION/POSITION SKY/WX   TEMP    WIND        PRES    VSBY  WAVE
                          AIR SEA DIR/SP/G                  HT/PER
                          (F)     (DEG/KT/KT) (MB)    (MI)  (FT/S)
SOUTHERN BUOY              47 38  210/ 10/ 14 1011.9R         2/ 4
HARRISON CRIB              66     210/ 26/ 34   N/A
BURNHAM HARBOR             71     170/ 11/ 17   N/A
CALUMET HARBOR             66     230/ 11/ 18   N/A
BURNS HARBOR               73     200/ 19/ 29 1012.5R
MICHIGAN CITY              73     180/ 22/ 32   N/A
MICHIGAN CITY 6N           61 52  250/ 10/ 14   N/A           3/ 4
ST. JOSEPH                 60 54  250/  8/ 10   N/A           3/ 4
$$

ILZ025>027-034>036-040-047-049-050-058-095>099-251800-
WEST-CENTRAL ILLINOIS

CITY           SKY/WX    TMP DP  RH WIND       PRES   REMARKS
QUINCY         MOSUNNY   74  63  68 SW15      29.96F
GALESBURG*     PTSUNNY   71  63  74 SW16      29.93F
MACOMB*        PTSUNNY   73  64  72 SW20      29.97S
JACKSONVILLE*  MOSUNNY   75  65  69 S12       29.99S
PITTSFIELD*    MOSUNNY   75  64  67 SW9       30.00S
$$

ILZ028>032-037-038-041>044-048-051>054-059>061-251800-
CENTRAL ILLINOIS

CITY           SKY/WX    TMP DP  RH WIND       PRES   REMARKS
PONTIAC        CLOUDY    74  66  75 SW20G29   29.95R
BLOOMINGTON    PTSUNNY   72  64  75 SW20G28   29.99R
DECATUR        PTSUNNY   75  61  61 SW15      30.01R
PEORIA         PTSUNNY   76  62  62 W15       29.96R
LACON*         PTSUNNY   72  63  72 SW12      29.93S
LINCOLN*       PTSUNNY   75  62  63 SW10G18   29.97S
SPRINGFIELD    PTSUNNY   75  62  64 SW12G21   30.00S
TAYLORVILLE    PTSUNNY   73  63  68 SW15      30.02S
$$

ILZ033-039-045-046-055>057-062-063-251800-
EAST-CENTRAL ILLINOIS

CITY           SKY/WX    TMP DP  RH WIND       PRES   REMARKS
CHAMPAIGN      PTSUNNY   79  58  48 SW25G32   30.00R HX  80
DANVILLE*      PTSUNNY   75  65  69 SW18      29.97S
RANTOUL*       PTSUNNY   80  62  54 SW22G31   29.99R HX  81
MATTOON        PTSUNNY   75  68  78 SW10G18   30.03R
PARIS*         PTSUNNY   81  64  57 SW25G35   30.03S HX  82
$$

ILZ079-100>102-251800-
SOUTHWEST ILLINOIS

CITY           SKY/WX    TMP DP  RH WIND       PRES   REMARKS
ALTON          PTSUNNY   77  64  65 S12       30.02
BELLEVILLE     PTSUNNY   80  66  62 S13G18    30.00F HX  82
CAHOKIA*       PTSUNNY   79  63  57 MISG      30.01F HX  80
SPARTA*        PTSUNNY   76  68  78 S9G16     30.05S
$$

ILZ064>066-069>071-074>076-080>082-084>086-088>090-092>094-251800-
SOUTH-CENTRAL ILLINOIS

CITY           SKY/WX    TMP DP  RH WIND       PRES   REMARKS
CARBONDALE     CLOUDY    74  67  78 S12       30.07R
CAIRO*         CLOUDY    74  69  86 S9        30.08F
EFFINGHAM*     PTSUNNY   77  62  59 S12G21    30.05S
MARION         CLOUDY    73  68  83 SW12      30.08S
MT. VERNON     CLOUDY    75  64  69 S13       30.08S
CENTRALIA*     PTSUNNY   80  65  61 S16       30.04F HX  81
SALEM*         PTSUNNY   78  68  71 SW14      30.05S HX  80
METROPOLIS*    CLOUDY    74  71  88 S6        30.09F
$$

ILZ067-068-072-073-078-083-087-091-251800-
SOUTHEAST ILLINOIS

CITY           SKY/WX    TMP DP  RH WIND       PRES   REMARKS
LAWRENCEVILLE  CLOUDY    75  66  73 SW16      30.09S
FLORA*         PTSUNNY   75  67  76 SW16      30.07S
FAIRFIELD*     CLOUDY    74  66  76 S14G20    30.07S
HARRISBURG*    CLOUDY    73  67  81 SW10      30.10S
ROBINSON*      PTSUNNY   75  67  76 S18G28    30.08F
CARMI*         CLOUDY    77  63  61 S14       30.08F
$$

ABBREVIATIONS USED IN REMARKS
   TC - TEMPERATURE IN CELSIUS
  WCI - WIND CHILL INDEX
   HX - HEAT INDEX
  VSB - VISIBILITY
$$




USA.gov is the U.S. government's official web portal to all federal, state and local government web resources and services.